N6GIW Weather Reports


time (UTC)temp
C
wind
direction
speed
KPH
gust
KPH
rain 1hr
cm
rain 24hr
cm
rain mn
cm
humidity
%
barometer
mb
20260831170518 30 87 1.6 11.3 0.00 0.00 0.00 25 1023.0
20260831170004 29 100 3.2 11.3 0.00 0.00 0.00 25 1022.9
20260831165504 29 142 1.6 11.3 0.00 0.00 0.00 25 1022.9
20260831165005 29 158 3.2 9.7 0.00 0.00 0.00 25 1023.0
20260831164504 29 147 4.8 8.0 0.00 0.00 0.00 25 1023.0
20260831164003 29 131 3.2 11.3 0.00 0.00 0.00 25 1023.0
20260831163504 29 118 4.8 12.9 0.00 0.00 0.00 25 1023.0
20260831163003 29 125 6.4 11.3 0.00 0.00 0.00 25 1022.9
20260831162503 28 136 0.0 4.8 0.00 0.00 0.00 25 1022.9
20260831162004 28 153 4.8 11.3 0.00 0.00 0.00 25 1023.0
20260831161503 29 133 4.8 8.0 0.00 0.00 0.00 25 1022.9
20260831160004 28 88 1.6 8.0 0.00 0.00 0.00 25 1022.8
20260831155503 28 124 1.6 3.2 0.00 0.00 0.00 25 1022.8
20260831155004 28 123 3.2 4.8 0.00 0.00 0.00 25 1022.9
20260831154504 28 97 0.0 11.3 0.00 0.00 0.00 26 1022.8
20260831154004 28 78 0.0 4.8 0.00 0.00 0.00 26 1022.8
20260831153504 27 145 0.0 3.2 0.00 0.00 0.00 27 1022.7
20260831153003 27 146 1.6 4.8 0.00 0.00 0.00 27 1022.8
20260831152503 27 163 1.6 4.8 0.00 0.00 0.00 28 1022.7
20260831152003 27 162 3.2 4.8 0.00 0.00 0.00 28 1022.6
20260831151504 26 216 0.0 0.0 0.00 0.00 0.00 28 1022.6
20260831151004 26 228 0.0 3.2 0.00 0.00 0.00 29 1022.6
20260831150504 26 234 0.0 0.0 0.00 0.00 0.00 29 1022.4
20260831145504 25 209 1.6 4.8 0.00 0.00 0.00 30 1022.5
20260831145004 25 215 1.6 4.8 0.00 0.00 0.00 31 1022.4
20260831144504 25 219 1.6 4.8 0.00 0.00 0.00 32 1022.4
20260831144004 24 235 1.6 4.8 0.00 0.00 0.00 32 1022.3
20260831143504 23 233 0.0 4.8 0.00 0.00 0.00 33 1022.3
20260831143003 23 233 0.0 0.0 0.00 0.00 0.00 33 1022.3
20260831142503 22 232 0.0 0.0 0.00 0.00 0.00 34 1022.3
20260831142004 22 232 0.0 4.8 0.00 0.00 0.00 34 1022.2
20260831141503 22 244 1.6 4.8 0.00 0.00 0.00 34 1022.2
20260831141004 21 241 1.6 4.8 0.00 0.00 0.00 34 1022.2
20260831140503 21 238 1.6 4.8 0.00 0.00 0.00 35 1021.9
20260831140003 21 242 0.0 1.6 0.00 0.00 0.00 35 1021.9
20260831135504 21 231 0.0 4.8 0.00 0.00 0.00 36 1021.8
20260831135005 20 236 1.6 4.8 0.00 0.00 0.00 36 1021.8
20260831134504 20 242 1.6 4.8 0.00 0.00 0.00 37 1021.7
20260831134003 19 240 0.0 8.0 0.00 0.00 0.00 37 1021.6
20260831133503 19 228 1.6 8.0 0.00 0.00 0.00 37 1021.5
20260831133004 18 247 3.2 4.8 0.00 0.00 0.00 37 1021.4
20260831132504 18 249 1.6 4.8 0.00 0.00 0.00 37 1021.3
20260831131503 19 244 4.8 8.0 0.00 0.00 0.00 36 1021.3
20260831131004 19 239 1.6 8.0 0.00 0.00 0.00 36 1021.3
20260831130003 19 246 1.6 4.8 0.00 0.00 0.00 36 1021.3
20260831125503 19 240 3.2 4.8 0.00 0.00 0.00 35 1021.3
20260831125003 20 255 3.2 4.8 0.00 0.00 0.00 36 1021.2
20260831124503 20 241 1.6 4.8 0.00 0.00 0.00 35 1021.2
20260831124005 20 245 3.2 8.0 0.00 0.00 0.00 35 1021.2
20260831123503 20 223 0.0 1.6 0.00 0.00 0.00 36 1021.1
20260831123004 20 222 0.0 3.2 0.00 0.00 0.00 36 1021.3
20260831122003 19 227 4.8 8.0 0.00 0.00 0.00 36 1021.1
20260831121504 19 233 3.2 11.3 0.00 0.00 0.00 36 1021.2
20260831121003 18 247 4.8 4.8 0.00 0.00 0.00 37 1021.1
20260831120503 18 242 0.0 3.2 0.00 0.00 0.00 38 1021.0
20260831120004 18 227 0.0 0.0 0.00 0.00 0.00 38 1021.0
20260831115503 18 227 0.0 0.0 0.00 0.00 0.00 39 1020.9
20260831115004 18 225 0.0 0.0 0.00 0.00 0.00 40 1020.9
20260831114504 18 219 0.0 0.0 0.00 0.00 0.00 40 1020.9
20260831114004 18 219 0.0 0.0 0.00 0.00 0.00 40 1020.8
20260831113504 18 219 0.0 0.0 0.00 0.00 0.00 40 1020.8
20260831113003 18 219 0.0 0.0 0.00 0.00 0.00 40 1021.1
20260831112504 18 219 0.0 0.0 0.00 0.00 0.00 40 1021.0
20260831112004 18 219 0.0 0.0 0.00 0.00 0.00 41 1021.0
20260831111503 18 219 0.0 0.0 0.00 0.00 0.00 42 1021.0
20260831111004 18 219 0.0 0.0 0.00 0.00 0.00 43 1021.0
20260831110004 18 219 0.0 0.0 0.00 0.00 0.00 43 1021.0
20260831105504 18 219 0.0 0.0 0.00 0.00 0.00 43 1021.0
20260831105004 18 219 0.0 0.0 0.00 0.00 0.00 43 1021.0
20260831104504 18 213 0.0 0.0 0.00 0.00 0.00 42 1021.0
20260831103504 18 205 0.0 0.0 0.00 0.00 0.00 44 1021.0
20260831103004 18 203 0.0 0.0 0.00 0.00 0.00 44 1021.0
20260831102503 18 195 0.0 0.0 0.00 0.00 0.00 43 1020.9
20260831102004 19 194 0.0 0.0 0.00 0.00 0.00 43 1020.8
20260831101503 19 194 0.0 0.0 0.00 0.00 0.00 42 1020.8
20260831101003 19 194 0.0 0.0 0.00 0.00 0.00 42 1020.8
20260831100003 19 194 0.0 1.6 0.00 0.00 0.00 43 1020.9
20260831095504 19 192 0.0 0.0 0.00 0.00 0.00 43 1020.9
20260831095003 19 192 0.0 0.0 0.00 0.00 0.00 43 1021.0
20260831094503 20 192 0.0 0.0 0.00 0.00 0.00 42 1020.9
20260831094004 20 186 0.0 0.0 0.00 0.00 0.00 40 1020.9
20260831093503 21 186 0.0 0.0 0.00 0.00 0.00 40 1020.9
20260831093004 21 186 0.0 0.0 0.00 0.00 0.00 40 1020.8
20260831092004 20 186 0.0 1.6 0.00 0.00 0.00 42 1020.8
20260831091504 20 182 0.0 0.0 0.00 0.00 0.00 43 1020.8
20260831091004 20 182 0.0 0.0 0.00 0.00 0.00 42 1020.8
20260831090503 20 178 0.0 0.0 0.00 0.00 0.00 42 1020.8
20260831090004 20 178 0.0 0.0 0.00 0.00 0.00 41 1020.8
20260831085503 20 178 0.0 0.0 0.00 0.00 0.00 41 1020.8
20260831085003 21 178 0.0 0.0 0.00 0.00 0.00 40 1020.8
20260831084504 21 178 0.0 0.0 0.00 0.00 0.00 41 1020.9
20260831084003 21 178 0.0 0.0 0.00 0.00 0.00 40 1021.1
20260831083503 21 178 0.0 0.0 0.00 0.00 0.00 41 1021.1
20260831083004 20 178 0.0 0.0 0.00 0.00 0.00 41 1021.2
20260831082504 20 178 0.0 0.0 0.00 0.00 0.00 42 1021.2
20260831082004 21 178 0.0 0.0 0.00 0.00 0.00 41 1021.2
20260831081504 21 178 0.0 0.0 0.00 0.00 0.00 41 1021.1
20260831081004 21 178 0.0 0.0 0.00 0.00 0.00 40 1021.2
20260831080504 21 178 0.0 0.0 0.00 0.00 0.00 40 1021.2
20260831080005 21 178 0.0 3.2 0.00 0.00 0.00 40 1021.2
20260831075004 21 178 0.0 1.6 0.00 0.00 0.00 39 1021.3
20260831074004 22 199 0.0 4.8 0.00 0.00 0.00 39 1021.0
20260831073504 22 200 3.2 4.8 0.00 0.00 0.00 39 1021.0
20260831073004 22 205 0.0 0.0 0.00 0.00 0.00 37 1021.1
20260831072503 23 205 0.0 0.0 0.00 0.00 0.00 37 1021.1
20260831072004 23 205 0.0 1.6 0.00 0.00 0.00 36 1021.2
20260831071503 23 205 0.0 0.0 0.00 0.00 0.00 36 1021.2
20260831071004 24 205 0.0 0.0 0.00 0.00 0.00 35 1021.1
20260831070503 24 205 0.0 0.0 0.00 0.00 0.00 35 1021.1
20260831065503 25 205 0.0 0.0 0.00 0.00 0.00 35 1021.1
20260831065003 25 205 0.0 0.0 0.00 0.00 0.00 35 1021.1
20260831064504 25 275 0.0 0.0 0.00 0.00 0.00 34 1021.0
20260831064004 25 275 0.0 3.2 0.00 0.00 0.00 34 1021.1
20260831063505 26 341 0.0 3.2 0.00 0.00 0.00 34 1021.0
20260831063003 26 340 1.6 4.8 0.00 0.00 0.00 33 1021.1
20260831062504 26 34 1.6 4.8 0.00 0.00 0.00 33 1021.2
20260831062004 26 331 1.6 11.3 0.00 0.00 0.00 35 1021.1
20260831061504 25 298 0.0 0.0 0.00 0.00 0.00 37 1021.1
20260831061004 25 297 0.0 0.0 0.00 0.00 0.00 37 1021.1
20260831060503 26 297 0.0 4.8 0.00 0.00 0.00 37 1021.2
20260831060004 26 276 0.0 8.0 0.00 0.00 0.00 37 1021.1
20260831055504 26 313 4.8 12.9 0.00 0.00 0.00 38 1021.1
20260831055004 26 289 4.8 14.5 0.00 0.00 0.00 38 1021.2
20260831054004 26 274 3.2 12.9 0.00 0.00 0.00 36 1021.0
20260831053503 26 253 11.3 19.3 0.00 0.00 0.00 36 1021.0
20260831052504 27 249 12.9 20.9 0.00 0.00 0.00 36 1020.9
20260831052004 27 234 12.9 22.5 0.00 0.00 0.00 36 1020.9
20260831051003 26 232 9.7 19.3 0.00 0.00 0.00 37 1020.9
20260831050504 26 235 9.7 19.3 0.00 0.00 0.00 38 1021.1
20260831050004 26 229 8.0 16.1 0.00 0.00 0.00 39 1021.1
20260831045504 26 238 8.0 16.1 0.00 0.00 0.00 39 1021.1
20260831045004 26 247 8.0 16.1 0.00 0.00 0.00 38 1021.1
20260831044004 26 239 9.7 16.1 0.00 0.00 0.00 37 1020.9
20260831043504 27 225 8.0 16.1 0.00 0.00 0.00 37 1020.9
20260831043003 27 232 11.3 20.9 0.00 0.00 0.00 36 1020.8
20260831042504 27 234 12.9 19.3 0.00 0.00 0.00 37 1020.8
20260831042003 27 228 14.5 20.9 0.00 0.00 0.00 36 1020.7
20260831041503 27 229 6.4 16.1 0.00 0.00 0.00 33 1020.7
20260831040504 28 224 11.3 19.3 0.00 0.00 0.00 32 1020.4
20260831040003 28 228 14.5 24.1 0.00 0.00 0.00 31 1020.3
20260831035505 28 221 14.5 22.5 0.00 0.00 0.00 29 1020.2
20260831035003 28 221 14.5 22.5 0.00 0.00 0.00 29 1020.3
20260831034003 27 212 9.7 20.9 0.00 0.00 0.00 36 1020.3
20260831033505 27 196 1.6 9.7 0.00 0.00 0.00 37 1020.4
20260831032504 27 229 4.8 16.1 0.00 0.00 0.00 40 1020.2
20260831032003 27 219 9.7 19.3 0.00 0.00 0.00 40 1020.1
20260831031504 27 212 9.7 19.3 0.00 0.00 0.00 39 1020.0
20260831031004 27 202 8.0 16.1 0.00 0.00 0.00 40 1020.1
20260831030504 28 209 9.7 14.5 0.00 0.00 0.00 39 1020.0
20260831030004 28 217 8.0 16.1 0.00 0.00 0.00 38 1019.9
20260831025504 28 189 8.0 14.5 0.00 0.00 0.00 38 1019.9
20260831025004 28 216 4.8 12.9 0.00 0.00 0.00 37 1020.0
20260831024504 28 211 9.7 14.5 0.00 0.00 0.00 35 1019.7
20260831024003 29 205 9.7 19.3 0.00 0.00 0.00 33 1019.6
20260831023503 29 209 9.7 16.1 0.00 0.00 0.00 32 1019.4
20260831023004 29 209 6.4 12.9 0.00 0.00 0.00 30 1019.3
20260831022504 30 215 6.4 19.3 0.00 0.00 0.00 31 1019.4
20260831022004 30 224 12.9 25.7 0.00 0.00 0.00 31 1019.3
20260831021503 30 210 11.3 20.9 0.00 0.00 0.00 31 1019.3
20260831021003 30 221 9.7 22.5 0.00 0.00 0.00 29 1019.2
20260831020503 30 224 9.7 19.3 0.00 0.00 0.00 28 1019.2
20260831020004 31 232 9.7 20.9 0.00 0.00 0.00 28 1019.1
20260831015503 31 227 11.3 24.1 0.00 0.00 0.00 28 1019.1
20260831015004 31 228 14.5 24.1 0.00 0.00 0.00 28 1019.0
20260831014503 31 207 17.7 27.4 0.00 0.00 0.00 29 1019.1
20260831014005 31 224 9.7 20.9 0.00 0.00 0.00 28 1019.1
20260831013503 31 205 17.7 29.0 0.00 0.00 0.00 27 1019.1
20260831012503 31 213 20.9 40.2 0.00 0.00 0.00 27 1019.3
20260831012004 32 218 19.3 32.2 0.00 0.00 0.00 28 1019.5
20260831011504 32 245 19.3 29.0 0.00 0.00 0.00 29 1019.5
20260831010004 32 222 20.9 29.0 0.00 0.00 0.00 27 1019.6
20260831005503 32 218 20.9 32.2 0.00 0.00 0.00 26 1019.4
20260831005004 32 217 20.9 37.0 0.00 0.00 0.00 26 1019.6
20260831004504 33 206 20.9 33.8 0.00 0.00 0.00 27 1019.4
20260831004003 33 206 20.9 37.0 0.00 0.00 0.00 25 1019.5
20260831003004 33 213 20.9 32.2 0.00 0.00 0.00 24 1019.4
20260831002504 33 234 22.5 35.4 0.00 0.00 0.00 24 1019.4
20260831001004 33 227 24.1 33.8 0.00 0.00 0.00 21 1019.4
20260831000503 33 211 20.9 35.4 0.00 0.00 0.00 21 1019.4
20260831000004 33 234 24.1 32.2 0.00 0.00 0.00 20 1019.4
20260830235503 34 219 24.1 33.8 0.00 0.00 0.00 20 1019.3
20260830235004 33 199 29.0 45.1 0.00 0.00 0.00 17 1019.4
20260830234504 34 206 25.7 41.8 0.00 0.00 0.00 20 1019.5
20260830234003 34 220 19.3 38.6 0.00 0.00 0.00 19 1019.4
20260830233503 34 200 19.3 32.2 0.00 0.00 0.00 18 1019.5
20260830233004 34 215 19.3 35.4 0.00 0.00 0.00 19 1019.4
20260830231504 34 200 24.1 37.0 0.00 0.00 0.00 20 1019.5
20260830230503 34 193 25.7 37.0 0.00 0.00 0.00 19 1019.7
20260830230004 34 197 22.5 41.8 0.00 0.00 0.00 18 1019.8
20260830225503 34 205 22.5 33.8 0.00 0.00 0.00 20 1019.7
20260830225003 35 196 22.5 37.0 0.00 0.00 0.00 18 1019.9
20260830224504 35 202 19.3 32.2 0.00 0.00 0.00 19 1019.8
20260830224004 35 198 19.3 35.4 0.00 0.00 0.00 19 1020.1
20260830223504 34 207 20.9 45.1 0.00 0.00 0.00 19 1020.1
20260830223004 35 192 20.9 48.3 0.00 0.00 0.00 21 1020.1
20260830222004 35 222 22.5 32.2 0.00 0.00 0.00 18 1020.3
20260830221004 34 189 22.5 33.8 0.00 0.00 0.00 21 1020.5
20260830220504 35 190 24.1 41.8 0.00 0.00 0.00 22 1020.6
20260830220004 35 197 19.3 32.2 0.00 0.00 0.00 21 1020.7
20260830215005 35 199 20.9 32.2 0.00 0.00 0.00 22 1020.8
20260830214503 34 198 19.3 38.6 0.00 0.00 0.00 22 1021.0
20260830214004 34 194 22.5 38.6 0.00 0.00 0.00 22 1021.0
20260830213504 35 190 22.5 35.4 0.00 0.00 0.00 21 1021.2
20260830213004 34 198 16.1 40.2 0.00 0.00 0.00 22 1021.2
20260830212503 34 172 22.5 38.6 0.00 0.00 0.00 22 1021.4
20260830212004 34 165 16.1 33.8 0.00 0.00 0.00 23 1021.5
20260830211503 34 191 20.9 41.8 0.00 0.00 0.00 22 1021.6
20260830211004 34 180 19.3 41.8 0.00 0.00 0.00 22 1021.7
20260830210503 34 182 20.9 29.0 0.00 0.00 0.00 22 1021.7
20260830210004 34 202 16.1 25.7 0.00 0.00 0.00 23 1021.8
20260830205503 34 217 19.3 29.0 0.00 0.00 0.00 23 1021.9
20260830205004 34 185 20.9 32.2 0.00 0.00 0.00 23 1022.2
20260830204505 34 186 16.1 25.7 0.00 0.00 0.00 23 1022.2
20260830204004 34 166 17.7 27.4 0.00 0.00 0.00 24 1022.1
20260830203504 33 187 12.9 27.4 0.00 0.00 0.00 22 1022.2
20260830203004 34 168 14.5 20.9 0.00 0.00 0.00 24 1022.3
20260830202504 33 158 9.7 32.2 0.00 0.00 0.00 25 1022.3
20260830202004 33 152 9.7 32.2 0.00 0.00 0.00 24 1022.2
20260830201504 33 173 17.7 25.7 0.00 0.00 0.00 24 1022.2
20260830201003 34 204 14.5 24.1 0.00 0.00 0.00 23 1022.2
20260830200504 34 168 16.1 32.2 0.00 0.00 0.00 24 1022.3
20260830200004 34 169 22.5 33.8 0.00 0.00 0.00 24 1022.3
20260830195504 34 171 16.1 32.2 0.00 0.00 0.00 24 1022.2
20260830195003 33 172 19.3 38.6 0.00 0.00 0.00 24 1022.1
20260830194504 33 212 16.1 27.4 0.00 0.00 0.00 23 1022.2
20260830194004 33 192 14.5 32.2 0.00 0.00 0.00 23 1022.2
20260830193004 33 199 19.3 29.0 0.00 0.00 0.00 22 1022.6
20260830192504 33 181 19.3 32.2 0.00 0.00 0.00 22 1022.5
20260830192003 33 185 16.1 24.1 0.00 0.00 0.00 23 1022.6
20260830191503 33 185 19.3 27.4 0.00 0.00 0.00 23 1022.6
20260830191003 33 195 19.3 32.2 0.00 0.00 0.00 23 1022.6
20260830190504 33 185 14.5 22.5 0.00 0.00 0.00 24 1022.9
20260830190003 33 196 12.9 22.5 0.00 0.00 0.00 24 1022.8
20260830185504 33 194 8.0 24.1 0.00 0.00 0.00 23 1022.9
20260830184503 33 208 8.0 22.5 0.00 0.00 0.00 24 1022.8
20260830184004 33 195 11.3 19.3 0.00 0.00 0.00 24 1022.9
20260830183504 33 162 8.0 22.5 0.00 0.00 0.00 24 1023.0
20260830183004 33 162 1.6 8.0 0.00 0.00 0.00 26 1023.0
20260830182504 32 144 3.2 11.3 0.00 0.00 0.00 26 1023.0
20260830182003 32 299 1.6 8.0 0.00 0.00 0.00 26 1023.1
20260830181504 33 145 3.2 11.3 0.00 0.00 0.00 26 1023.1
20260830181004 33 126 6.4 12.9 0.00 0.00 0.00 26 1023.1
20260830180504 32 93 3.2 11.3 0.00 0.00 0.00 26 1023.0
20260830175504 32 122 0.0 11.3 0.00 0.00 0.00 27 1023.1
20260830174004 32 100 1.6 14.5 0.00 0.00 0.00 27 1023.1
20260830173004 32 126 4.8 9.7 0.00 0.00 0.00 27 1023.0
20260830172504 31 115 1.6 9.7 0.00 0.00 0.00 28 1023.2
20260830172004 32 115 1.6 4.8 0.00 0.00 0.00 28 1023.2
20260830171504 32 99 1.6 4.8 0.00 0.00 0.00 28 1023.0
20260830171004 31 162 0.0 11.3 0.00 0.00 0.00 28 1023.0